Date String (YYYY-MM-DD hh:mm:ss) UTC,Instrument flags,Ambient pressure (hPa),Sample flow (lpm),Bypass flow (lpm),Sample temperature (°C),Ambient temperature (°C),ASC tube jacket temperature (°C),LED temperature (°C),Box temperature (°C),Sample RH (%),Span deviation,Mass concentration (μg/m³),Mass concentration (μg/m³),Mass concentration (μg/m³)
DateTimeUTC,F1_M11,P_M11,Q1_M11,Q2_M11,T1_M11,T2_M11,T3_M11,T4_M11,T5_M11,U1_M11,ZSPAN_M11,X0_M11,X2_M11,X1_M11
2021-08-31 23:00:00,,0821.5,4.99,0.00,28.8,27.3,00.0,37.8,30.7,14.5,0000.7,0051.94,0030.33,0028.60
2021-08-31 23:01:00,,0821.5,5.01,0.00,28.9,27.7,00.0,37.9,30.8,14.6,0000.6,0052.99,0030.64,0028.84
2021-08-31 23:02:00,,0821.5,4.98,0.00,29.0,27.8,00.0,37.9,30.9,15.1,0000.6,0053.53,0030.84,0029.03
2021-08-31 23:03:00,,0821.5,5.00,0.00,28.9,26.5,00.0,37.9,30.5,13.4,0000.6,0054.46,0031.00,0029.16
2021-08-31 23:04:00,,0821.5,4.99,0.00,28.8,25.5,00.0,37.9,30.2,13.9,0000.4,0054.48,0031.08,0029.22
2021-08-31 23:05:00,,0821.5,4.99,0.00,28.7,25.9,00.0,37.8,30.3,14.2,0000.3,0054.97,0031.16,0029.28
2021-08-31 23:06:00,,0821.5,5.01,0.00,28.7,26.3,00.0,37.8,30.4,14.7,0000.2,0056.12,0031.25,0029.32
2021-08-31 23:07:00,,0821.5,4.99,0.00,28.8,26.7,00.0,37.8,30.5,14.9,0000.1,0056.30,0031.32,0029.34
2021-08-31 23:08:00,,0821.5,5.00,0.00,28.8,27.2,00.0,37.8,30.6,14.0,-000.1,0055.42,0031.19,0029.19
2021-08-31 23:09:00,,0821.5,4.99,0.00,28.9,27.6,00.0,37.8,30.8,13.3,-000.1,0052.94,0030.87,0028.90
2021-08-31 23:10:00,,0821.6,5.01,0.00,28.9,27.1,00.0,37.9,30.6,14.0,-000.0,0051.70,0030.51,0028.60
2021-08-31 23:11:00,,0821.5,4.99,0.00,28.8,25.6,00.0,37.8,30.1,14.5,-000.1,0051.39,0030.24,0028.33
2021-08-31 23:12:00,,0821.5,4.99,0.00,28.7,25.5,00.0,37.8,30.1,14.4,0000.1,0050.06,0029.88,0028.04
2021-08-31 23:13:00,,0821.6,5.00,0.00,28.6,26.0,00.0,37.8,30.2,14.4,0000.2,0049.33,0029.52,0027.71
2021-08-31 23:14:00,,0821.5,5.00,0.00,28.6,26.5,00.0,37.8,30.3,13.3,0000.2,0048.46,0029.24,0027.42
2021-08-31 23:15:00,,0821.5,5.01,0.00,28.7,26.9,00.0,37.8,30.5,13.1,0000.3,0047.06,0028.91,0027.10
2021-08-31 23:16:00,,0821.5,5.00,0.00,28.8,27.3,00.0,37.8,30.6,13.6,0000.6,0046.84,0028.65,0026.84
2021-08-31 23:17:00,,0821.5,5.00,0.00,28.8,27.7,00.0,37.8,30.8,13.3,0000.6,0045.94,0028.37,0026.59
2021-08-31 23:18:00,,0821.5,5.00,0.00,28.9,28.0,00.0,37.8,30.9,13.3,0000.5,0045.12,0028.00,0026.30
2021-08-31 23:19:00,,0821.5,4.99,0.00,29.0,28.1,00.0,37.9,30.9,13.6,0000.7,0044.39,0027.77,0026.12
2021-08-31 23:20:00,,0821.5,5.00,0.00,29.0,26.8,00.0,37.9,30.6,13.5,0000.6,0043.65,0027.76,0026.08
2021-08-31 23:21:00,,0821.5,5.01,0.00,28.8,25.6,00.0,37.8,30.2,14.1,0000.8,0043.79,0027.82,0026.10
2021-08-31 23:22:00,,0821.5,5.00,0.00,28.7,25.9,00.0,37.8,30.3,14.4,0001.0,0043.49,0027.85,0026.06
2021-08-31 23:23:00,,0821.5,5.00,0.00,28.7,26.3,00.0,37.8,30.4,14.2,0001.0,0046.06,0028.04,0025.99
2021-08-31 23:24:00,,0821.5,5.00,0.00,28.8,26.8,00.0,37.8,30.5,13.9,0001.1,0048.34,0028.22,0025.96
2021-08-31 23:25:00,,0821.5,5.00,0.00,28.8,27.2,00.0,37.8,30.7,14.0,0001.3,0048.88,0028.19,0025.90
2021-08-31 23:26:00,,0821.5,5.00,0.00,28.9,27.6,00.0,37.8,30.8,13.9,0001.3,0049.25,0028.22,0025.92
2021-08-31 23:27:00,,0821.5,4.99,0.00,29.0,28.0,00.0,37.9,30.9,14.1,0001.3,0049.31,0028.21,0025.95
2021-08-31 23:28:00,,0821.5,5.00,0.00,29.0,28.2,00.0,37.9,31.0,14.3,0001.4,0049.93,0028.26,0026.01
2021-08-31 23:29:00,,0821.5,5.00,0.00,29.0,27.0,00.0,37.9,30.7,14.5,0001.2,0049.04,0028.45,0026.11
2021-08-31 23:30:00,,0821.5,5.01,0.00,28.9,25.6,00.0,37.9,30.3,14.7,0001.3,0049.76,0028.57,0026.21
2021-08-31 23:31:00,,0821.5,5.00,0.00,28.8,25.9,00.0,37.9,30.3,15.0,0001.3,0050.47,0028.62,0026.26
2021-08-31 23:32:00,,0821.5,4.99,0.00,28.8,26.3,00.0,37.9,30.4,15.5,0001.1,0050.48,0028.61,0026.26
2021-08-31 23:33:00,,0821.5,5.00,0.00,28.8,26.8,00.0,37.9,30.5,15.6,0001.1,0049.90,0028.53,0026.27
2021-08-31 23:34:00,,0821.5,4.99,0.00,28.8,27.2,00.0,37.9,30.7,14.7,0001.2,0047.93,0028.45,0026.41
2021-08-31 23:35:00,,0821.5,5.00,0.00,28.9,27.6,00.0,37.9,30.8,15.2,0001.3,0046.02,0028.36,0026.49
2021-08-31 23:36:00,,0821.6,5.01,0.00,29.0,27.9,00.0,37.9,30.9,15.0,0001.1,0045.46,0028.43,0026.58
2021-08-31 23:37:00,,0821.5,4.99,0.00,29.0,27.7,00.0,37.9,30.9,15.3,0001.2,0045.14,0028.50,0026.64
2021-08-31 23:38:00,,0821.5,5.00,0.00,28.9,26.1,00.0,37.9,30.5,14.7,0001.0,0044.60,0028.61,0026.72
2021-08-31 23:39:00,,0821.5,5.00,0.00,28.8,25.6,00.0,37.9,30.3,14.4,0001.0,0043.73,0028.73,0026.82
2021-08-31 23:40:00,,0821.5,4.99,0.00,28.8,26.0,00.0,37.9,30.4,14.6,0001.2,0043.30,0028.82,0026.93
2021-08-31 23:41:00,,0821.5,5.00,0.00,28.8,26.5,00.0,37.9,30.5,14.7,0001.0,0043.04,0028.89,0027.01
2021-08-31 23:42:00,,0821.5,5.00,0.00,28.8,26.9,00.0,37.9,30.6,14.3,0001.1,0043.64,0029.06,0027.18
2021-08-31 23:43:00,,0821.5,5.00,0.00,28.9,27.4,00.0,37.9,30.7,14.4,0001.3,0043.85,0029.34,0027.40
2021-08-31 23:44:00,,0821.6,5.00,0.00,28.9,27.7,00.0,37.9,30.8,14.7,0001.0,0044.02,0029.61,0027.59
2021-08-31 23:45:00,,0821.5,5.00,0.00,29.0,28.0,00.0,37.9,30.9,14.4,0000.7,0043.91,0029.73,0027.70
2021-08-31 23:46:00,,0821.5,4.99,0.00,29.0,26.9,00.0,37.9,30.7,13.5,0000.6,0043.87,0029.86,0027.83
2021-08-31 23:47:00,,0821.6,5.01,0.00,28.9,25.6,00.0,37.9,30.3,14.3,0000.7,0043.88,0029.98,0027.98
2021-08-31 23:48:00,,0821.6,4.99,0.00,28.8,25.8,00.0,37.9,30.3,15.3,0000.8,0043.86,0030.14,0028.16
2021-08-31 23:49:00,,0821.6,5.00,0.00,28.8,26.2,00.0,37.9,30.4,15.7,0000.9,0043.85,0030.29,0028.28
2021-08-31 23:50:00,,0821.5,5.00,0.00,28.8,26.7,00.0,37.9,30.5,15.2,0000.8,0044.41,0030.35,0028.35
2021-08-31 23:51:00,,0821.6,5.00,0.00,28.8,27.1,00.0,37.8,30.6,15.3,0000.6,0045.22,0030.40,0028.38
2021-08-31 23:52:00,,0821.6,5.00,0.00,28.9,27.5,00.0,37.9,30.8,15.0,0000.7,0046.32,0030.46,0028.44
2021-08-31 23:53:00,,0821.5,5.00,0.00,28.9,27.8,00.0,37.9,30.9,15.1,0000.8,0046.16,0030.45,0028.41
2021-08-31 23:54:00,,0821.6,5.00,0.00,29.0,28.1,00.0,37.9,31.0,14.5,0000.8,0047.38,0030.42,0028.39
2021-08-31 23:55:00,,0821.5,5.00,0.00,29.1,28.3,00.0,37.9,31.1,14.3,0001.0,0047.82,0030.31,0028.36
2021-08-31 23:56:00,,0821.5,5.00,0.00,29.1,27.4,00.0,38.0,30.8,14.3,0001.0,0047.95,0030.17,0028.29
2021-08-31 23:57:00,,0821.5,5.00,0.00,28.9,25.9,00.0,37.9,30.3,14.8,0001.2,0048.89,0030.10,0028.23
2021-08-31 23:58:00,,0821.6,4.99,0.00,28.9,25.8,00.0,37.9,30.3,15.1,0001.2,0049.23,0030.16,0028.25
2021-08-31 23:59:00,,0821.6,5.00,0.00,28.8,26.3,00.0,37.9,30.4,15.9,0001.0,0049.92,0030.17,0028.27
